カタログに戻る

FENGYUN 1C DEB

運用中SSO
NORAD 30193·DEBRIS·🇨🇳 China

打ち上げ May 10, 1999 から Taiyuan Satellite Launch Center

Loading…

次のパス (今後24時間)

TLE

最新Source: Space-Track

元期: Sep 14, 2026, 06:14 UTC

1 30193U 99025VA  26257.25985595  .00002080  00000-0  50469-3 0  9998
2 30193  98.7499 181.2034 0105946  21.8219 138.2702 14.50726538 31605

AllMySatでFENGYUN 1C DEBをリアルタイム追跡

Download on the App Store